岩本彗星

C/2018 Y1 ( Iwamoto )

English version
Home page
Updated on December 9, 2019

---------------------------------------------------------------------

・ プロフィール

発見日 2018年12月18日
発見光度 12等
発見者 Masayuki Iwamoto (Awa, Tokushima, Japan)

・ 写真集

・ 軌道要素

Epoch 2019 Feb. 6.0 TT = JDT 2458520.5
T 2019 Feb. 7.02949 TT                                  Williams
q   1.2869919            (2000.0)            P               Q
z  +0.0069385      Peri.  358.05610     -0.85992945     +0.47751153
 +/-0.0000010      Node   147.48352     +0.47270383     +0.61181704
e   0.9910702      Incl.  160.40344     +0.19254203     +0.63060499
From 2477 observations 2018 Dec. 19-2019 Nov. 2, mean residual 0".5.

・ 星図

・ 光度変化

        m1 = 7.0 + 5 logΔ + 15.0 log r

---------------------------------------------------------------------

軌道要素はM.P.E.C. 2019-V116に掲載されたものです。
星図はステラナビゲータ Ver.10 (アストロアーツ) で作成したものです。
光度グラフはComet for Windowsで作成したものです。

---------------------------------------------------------------------

Copyright(C) Seiichi Yoshida (comet@aerith.net). All rights reserved.